Location: Innsbruck
(47.2657°N, 11.3914°E)
Time: 02:24:53
(UTC+01:00)

XW-2F - Pass Details

Date: 14 December 2021
Orbit: 495 x 515 km, 97.5° (Epoch: 16 January)

Event Time Altitude Azimuth Distance (km) Brightness Sun altitude
Rises 17:21:28 0° 160° (SSE) 2,615 ? -9.3°
Reaches altitude 10° 17:23:33 10° 159° (SSE) 1,736 ? -9.6°
Maximum altitude 17:27:17 71° 75° (ENE) 550 ? -10.2°
Drops below altitude 10° 17:31:03 10° 351° (N) 1,757 ? -10.7°
Sets 17:33:10 0° 350° (N) 2,650 ? -11.1°
